Regional Weather Roundup
Issued by NWS

Home | Current Version | Previous Version | Graphics & Text | Print | Product List | Glossary On
Versions: 1 2 3 4 5 6 7 8 9 10 11 12 13 14 15 16 17 18 19 20 21 22 23 24 25 26 27 28 29 30 31 32 33 34 35 36 37 38 39 40 41 42 43 44 45 46 47 48 49 50
000
ASUS43 KLMK 282102
RWRKY
KENTUCKY REGIONAL WEATHER ROUNDUP
NATIONAL WEATHER SERVICE LOUISVILLE KY
500 PM EDT SAT MAR 28 2015

NOTE "FAIR" INDICATES FEW OR NO CLOUDS BELOW 12,000 FEET
WITH NO SIGNIFICANT WEATHER AND/OR OBSTRUCTIONS TO VISIBILITY.

KYZ001>023-026-027-061>063-070>075-282200-
WESTERN AND SOUTH CENTRAL KENTUCKY

CITY           SKY/WX    TMP DP  RH WIND       PRES   REMARKS
PADUCAH        SUNNY     47  17  30 N7        30.27F
HENDERSON      SUNNY     43  19  39 W3        30.30S
OWENSBORO      SUNNY     41  16  36 N9        30.30F
HOPKINSVILLE   SUNNY     44  16  33 VRB5      30.26F
BOWLING GREEN  SUNNY     44  12  27 VRB3      30.26F
GLASGOW        NOT AVBL
$$

KYZ024-025-028>034-038-045-046-053-282200-
NORTH CENTRAL KENTUCKY

CITY           SKY/WX    TMP DP  RH WIND       PRES   REMARKS
LOUISVILLE/SDF SUNNY     42  13  30 VRB7      30.28F
LOUISVILLE/LOU SUNNY     41  14  33 MISG      30.28F
FORT KNOX      SUNNY     41  13  32 N9        30.24F
$$

KYZ035>037-039>044-047>052-055>060-089>105-282200-
NORTHEAST KENTUCKY

CITY           SKY/WX    TMP DP  RH WIND       PRES   REMARKS
LEXINGTON      SUNNY     40  14  34 VRB5      30.25S
COVINGTON      SUNNY     36  12  37 NW6       30.26S WCI  31
FRANKFORT      SUNNY     39  10  30 NW10      30.25S WCI  32
$$

KYZ054-064>069-076>088-106>120-282200-
SOUTHEAST KENTUCKY

CITY           SKY/WX    TMP DP  RH WIND       PRES   REMARKS
JACKSON        SUNNY     38  10  31 VRB5      30.19S WCI  34
LONDON         SUNNY     42  10  27 N15       30.20S
SOMERSET       NOT AVBL
MIDDLESBORO    NOT AVBL
MONTICELLO     CLEAR     43  15  32 N9        30.25F
$$



USA.gov is the U.S. government's official web portal to all federal, state and local government web resources and services.